sat.trackr.live / text

‹ back to catalog

AEHF-5 (USA 292)

NORAD 44481 · 2019-051A

PAYLOAD ACTIVE UNKNOWN

§ Identity

Operator
Country
US
Launch date
2019-08-08
Launch site
AFETR
Launch vehicle
Mass (kg)
RCS (m²)

Purposes: comms

External: N2YO · Heavens-Above · Gunter

§ Orbital elements

Epoch: 2026-09-20T01:58:07.055040Z

Period
1,436.10 min
Inclination
1.3903°
Eccentricity
0.0029038
Mean motion
1.00271766 rev/d
Perigee alt
35,664.2 km
Apogee alt
35,909.0 km
Semi-major
42,164.7 km
B*
0.0000e+0
RAAN
344.0450°
Arg perigee
11.6279°
Mean anomaly
125.9370°
Rev number
2,621

§ Raw data

AEHF-5 (USA 292)1 44481U 19051A   26263.08202610 -.00000261  00000+0  00000+0 0  99932 44481   1.3903 344.0450 0029038  11.6279 125.9370  1.00271766 26215

JSON: /api/v1/satellites/44481 · /tle

For live sub-satellite position, see the globe view (requires WebGL).

§ Visibility from observer

Set your observer location to see the next 7 days of passes ≥ 10°. The values pass through the URL so the page stays shareable.

No JS? Fill the form by hand. The geolocation button needs JavaScript.